AAL1653 KSFO-KBUR

Flight info

Callsign AAL1653
Flight time 0h 51m
Altitude 31000
Route WESLA5 KTINA DCT CISKO DCT RDHOT ROKKR3
Aircraft B738/M-VGDW/C

Departure

Time 2026-05-07 15:27
Airport San Francisco International Airport (KSFO)

Arrival

Time 2026-05-07 16:18
Airport Hollywood Burbank/Bob Hope Airport (KBUR)
Time Latitude Longitude Altitude Speed Heading
2026-05-07 14:56 37.61785 -122.38077 17 ft 0 kts 261°
2026-05-07 15:01 37.61785 -122.38078 17 ft 0 kts 262°
2026-05-07 15:10 37.61785 -122.38079 17 ft 0 kts 264°
2026-05-07 15:13 37.61785 -122.38078 17 ft 0 kts 265°
2026-05-07 15:13 37.61785 -122.38077 17 ft 0 kts 265°
2026-05-07 15:14 37.61785 -122.38076 18 ft 0 kts 265°
2026-05-07 15:14 37.61786 -122.38063 18 ft 2 kts 265°
2026-05-07 15:14 37.61788 -122.38035 19 ft 2 kts 265°
2026-05-07 15:14 37.61789 -122.38021 19 ft 3 kts 294°
2026-05-07 15:15 37.61776 -122.38005 23 ft 3 kts 357°
2026-05-07 15:15 37.61760 -122.38012 20 ft 3 kts 53°
2026-05-07 15:15 37.61752 -122.38033 21 ft 3 kts 75°
2026-05-07 15:15 37.61749 -122.38047 20 ft 0 kts 79°
2026-05-07 15:16 37.61749 -122.38051 19 ft 0 kts 79°
2026-05-07 15:18 37.61749 -122.38050 19 ft 1 kts 79°
2026-05-07 15:19 37.61755 -122.38017 19 ft 7 kts 68°
2026-05-07 15:19 37.61817 -122.37963 21 ft 15 kts 28°
2026-05-07 15:19 37.61887 -122.37883 20 ft 11 kts 58°
2026-05-07 15:19 37.61956 -122.37905 22 ft 11 kts 350°
2026-05-07 15:20 37.61959 -122.37843 24 ft 14 kts 150°
2026-05-07 15:20 37.61822 -122.37786 17 ft 28 kts 139°
2026-05-07 15:20 37.61727 -122.37550 19 ft 33 kts 114°
2026-05-07 15:20 37.61630 -122.37302 22 ft 27 kts 117°
2026-05-07 15:21 37.61537 -122.37071 21 ft 32 kts 117°
2026-05-07 15:21 37.61401 -122.36826 18 ft 35 kts 127°
2026-05-07 15:21 37.61278 -122.36566 15 ft 34 kts 118°
2026-05-07 15:21 37.61172 -122.36315 17 ft 31 kts 118°
2026-05-07 15:22 37.61076 -122.36084 21 ft 28 kts 115°
2026-05-07 15:22 37.61079 -122.35917 18 ft 12 kts 44°
2026-05-07 15:22 37.61095 -122.35906 19 ft 0 kts 25°
2026-05-07 15:23 37.61109 -122.35898 19 ft 6 kts 25°
2026-05-07 15:23 37.61153 -122.35872 18 ft 8 kts 24°
2026-05-07 15:24 37.61197 -122.35903 18 ft 9 kts 298°
2026-05-07 15:24 37.61198 -122.35907 18 ft 0 kts 297°
2026-05-07 15:25 37.61200 -122.35910 18 ft 0 kts 297°
2026-05-07 15:25 37.61200 -122.35912 18 ft 0 kts 297°
2026-05-07 15:26 37.61205 -122.35922 17 ft 10 kts 297°
2026-05-07 15:26 37.61348 -122.36263 13 ft 78 kts 298°
2026-05-07 15:26 37.61698 -122.37096 20 ft 134 kts 297°
2026-05-07 15:26 37.62201 -122.38281 175 ft 165 kts 298°
2026-05-07 15:27 37.62779 -122.39559 791 ft 171 kts 300°
2026-05-07 15:27 37.63403 -122.40884 1426 ft 177 kts 301°
2026-05-07 15:27 37.64056 -122.42221 2076 ft 183 kts 301°
2026-05-07 15:27 37.64742 -122.43649 2562 ft 196 kts 302°
2026-05-07 15:28 37.65471 -122.45114 3156 ft 200 kts 303°
2026-05-07 15:28 37.66256 -122.46632 3485 ft 212 kts 303°
2026-05-07 15:28 37.67010 -122.48268 3904 ft 218 kts 297°
2026-05-07 15:28 37.67410 -122.50174 4105 ft 237 kts 266°
2026-05-07 15:29 37.66757 -122.52107 4401 ft 253 kts 229°
2026-05-07 15:29 37.65246 -122.53313 4782 ft 268 kts 201°
2026-05-07 15:29 37.63406 -122.53815 5416 ft 273 kts 182°
2026-05-07 15:29 37.61534 -122.53393 6137 ft 276 kts 161°
2026-05-07 15:30 37.59742 -122.52504 6832 ft 278 kts 159°
2026-05-07 15:30 37.57925 -122.51591 7433 ft 283 kts 160°
2026-05-07 15:30 37.56080 -122.50700 8134 ft 285 kts 161°
2026-05-07 15:30 37.54230 -122.49839 8862 ft 287 kts 161°
2026-05-07 15:31 37.52340 -122.48978 9589 ft 289 kts 161°
2026-05-07 15:31 37.50430 -122.48115 10279 ft 294 kts 161°
2026-05-07 15:31 37.48513 -122.46985 10451 ft 318 kts 143°
2026-05-07 15:31 37.46813 -122.45060 10669 ft 338 kts 137°
2026-05-07 15:32 37.45109 -122.42973 11103 ft 348 kts 136°
2026-05-07 15:32 37.43367 -122.40820 11750 ft 351 kts 136°
2026-05-07 15:32 37.41623 -122.38666 12473 ft 352 kts 136°
2026-05-07 15:32 37.39858 -122.36502 13137 ft 356 kts 136°
2026-05-07 15:33 37.38068 -122.34321 13793 ft 360 kts 136°
2026-05-07 15:33 37.36273 -122.32145 14377 ft 364 kts 136°
2026-05-07 15:33 37.34429 -122.29916 14971 ft 369 kts 136°
2026-05-07 15:33 37.32564 -122.27668 15584 ft 373 kts 136°
2026-05-07 15:34 37.30683 -122.25403 16220 ft 377 kts 136°
2026-05-07 15:34 37.28799 -122.23138 16810 ft 381 kts 136°
2026-05-07 15:34 37.26874 -122.20827 17463 ft 384 kts 136°
2026-05-07 15:34 37.24924 -122.18487 18044 ft 389 kts 136°
2026-05-07 15:35 37.22955 -122.16126 18596 ft 394 kts 136°
2026-05-07 15:35 37.20966 -122.13743 19199 ft 394 kts 136°
2026-05-07 15:35 37.18976 -122.11361 19778 ft 397 kts 136°
2026-05-07 15:35 37.16989 -122.08984 20282 ft 401 kts 136°
2026-05-07 15:36 37.14950 -122.06548 20810 ft 405 kts 136°
2026-05-07 15:36 37.12899 -122.04098 21349 ft 408 kts 135°
2026-05-07 15:36 37.10856 -122.01660 21862 ft 411 kts 135°
2026-05-07 15:36 37.08775 -121.99178 22358 ft 414 kts 135°
2026-05-07 15:37 37.06674 -121.96675 22844 ft 418 kts 135°
2026-05-07 15:37 37.04549 -121.94145 23340 ft 421 kts 135°
2026-05-07 15:37 37.02414 -121.91606 23801 ft 424 kts 135°
2026-05-07 15:37 37.00292 -121.89084 24192 ft 427 kts 135°
2026-05-07 15:38 36.98115 -121.86499 24607 ft 430 kts 135°
2026-05-07 15:38 36.95933 -121.83910 24991 ft 433 kts 135°
2026-05-07 15:38 36.93732 -121.81301 25374 ft 436 kts 135°
2026-05-07 15:38 36.91552 -121.78718 25791 ft 438 kts 135°
2026-05-07 15:39 36.89340 -121.76100 26236 ft 439 kts 135°
2026-05-07 15:39 36.87097 -121.73449 26609 ft 441 kts 135°
2026-05-07 15:39 36.84854 -121.70797 26956 ft 445 kts 135°
2026-05-07 15:39 36.82632 -121.68175 27310 ft 447 kts 135°
2026-05-07 15:40 36.80362 -121.65497 27698 ft 449 kts 135°
2026-05-07 15:40 36.78088 -121.62817 28198 ft 447 kts 135°
2026-05-07 15:40 36.75823 -121.60151 28754 ft 445 kts 135°
2026-05-07 15:40 36.73601 -121.57536 29263 ft 444 kts 135°
2026-05-07 15:41 36.71353 -121.54893 29715 ft 444 kts 135°
2026-05-07 15:41 36.69101 -121.52248 30176 ft 444 kts 135°
2026-05-07 15:41 36.66856 -121.49614 30683 ft 441 kts 135°
2026-05-07 15:41 36.64617 -121.46988 31015 ft 442 kts 135°
2026-05-07 15:42 36.62368 -121.44353 31173 ft 445 kts 135°
2026-05-07 15:42 36.60132 -121.41734 31166 ft 447 kts 135°
2026-05-07 15:42 36.55618 -121.36457 31167 ft 440 kts 135°
2026-05-07 15:43 36.51132 -121.31221 31174 ft 442 kts 135°
2026-05-07 15:43 36.46647 -121.25993 31166 ft 445 kts 135°
2026-05-07 15:44 36.42150 -121.20759 31166 ft 442 kts 135°
2026-05-07 15:44 36.37652 -121.15559 31168 ft 441 kts 137°
2026-05-07 15:45 36.32935 -121.10622 31167 ft 443 kts 140°
2026-05-07 15:45 36.28169 -121.05819 31157 ft 444 kts 140°
2026-05-07 15:46 36.20998 -120.98524 31159 ft 444 kts 139°
2026-05-07 15:47 36.16249 -120.93664 31168 ft 444 kts 139°
2026-05-07 15:47 36.11487 -120.88794 31152 ft 443 kts 139°
2026-05-07 15:48 36.06755 -120.83962 31164 ft 442 kts 139°
2026-05-07 15:48 36.02046 -120.79163 31154 ft 441 kts 139°
2026-05-07 15:49 35.97288 -120.74322 31168 ft 441 kts 139°
2026-05-07 15:49 35.92570 -120.69530 31162 ft 442 kts 139°
2026-05-07 15:50 35.87823 -120.64715 31161 ft 443 kts 139°
2026-05-07 15:50 35.83040 -120.59872 31174 ft 445 kts 139°
2026-05-07 15:51 35.78268 -120.55046 31187 ft 446 kts 139°
2026-05-07 15:51 35.73451 -120.50182 31187 ft 448 kts 139°
2026-05-07 15:52 35.68620 -120.45317 31174 ft 448 kts 139°
2026-05-07 15:52 35.63776 -120.40472 31173 ft 448 kts 139°
2026-05-07 15:53 35.58971 -120.35673 31156 ft 445 kts 139°
2026-05-07 15:53 35.54235 -120.30779 31169 ft 445 kts 138°
2026-05-07 15:54 35.49533 -120.25844 31121 ft 436 kts 138°
2026-05-07 15:54 35.47241 -120.23449 30884 ft 429 kts 138°
2026-05-07 15:54 35.45009 -120.21125 30625 ft 422 kts 138°
2026-05-07 15:54 35.42773 -120.18799 30251 ft 420 kts 138°
2026-05-07 15:55 35.40555 -120.16496 29848 ft 417 kts 138°
2026-05-07 15:55 35.38348 -120.14206 29427 ft 413 kts 138°
2026-05-07 15:55 35.36159 -120.11937 29039 ft 409 kts 138°
2026-05-07 15:55 35.33991 -120.09690 28655 ft 406 kts 138°
2026-05-07 15:56 35.31866 -120.07489 28258 ft 403 kts 138°
2026-05-07 15:56 35.29727 -120.05277 27894 ft 399 kts 138°
2026-05-07 15:56 35.27609 -120.03088 27523 ft 396 kts 138°
2026-05-07 15:56 35.25511 -120.00920 27177 ft 392 kts 138°
2026-05-07 15:57 35.23429 -119.98768 26785 ft 389 kts 138°
2026-05-07 15:57 35.21378 -119.96649 26423 ft 387 kts 138°
2026-05-07 15:57 35.19328 -119.94532 26056 ft 385 kts 138°
2026-05-07 15:57 35.17286 -119.92424 25682 ft 382 kts 138°
2026-05-07 15:58 35.15278 -119.90353 25324 ft 381 kts 138°
2026-05-07 15:58 35.13253 -119.88265 24956 ft 379 kts 138°
2026-05-07 15:58 35.11238 -119.86191 24596 ft 378 kts 138°
2026-05-07 15:58 35.09229 -119.84124 24217 ft 377 kts 138°
2026-05-07 15:59 35.07224 -119.82064 23865 ft 375 kts 138°
2026-05-07 15:59 35.05224 -119.80010 23450 ft 374 kts 138°
2026-05-07 15:59 35.03235 -119.77969 23045 ft 372 kts 138°
2026-05-07 15:59 35.01286 -119.75969 22664 ft 369 kts 138°
2026-05-07 16:00 34.99324 -119.73958 22289 ft 366 kts 138°
2026-05-07 16:00 34.97376 -119.71961 21885 ft 365 kts 138°
2026-05-07 16:00 34.95444 -119.69981 21667 ft 362 kts 138°
2026-05-07 16:00 34.93483 -119.67970 21354 ft 378 kts 138°
2026-05-07 16:01 34.92121 -119.66574 21089 ft 391 kts 138°
2026-05-07 16:01 34.89342 -119.63732 20485 ft 392 kts 138°
2026-05-07 16:01 34.87268 -119.61581 20051 ft 389 kts 134°
2026-05-07 16:01 34.86034 -119.60008 19793 ft 384 kts 128°
2026-05-07 16:02 34.84364 -119.57493 19433 ft 379 kts 125°
2026-05-07 16:02 34.82762 -119.54947 19053 ft 376 kts 125°
2026-05-07 16:02 34.81173 -119.52468 18691 ft 374 kts 126°
2026-05-07 16:02 34.79539 -119.49996 18308 ft 374 kts 126°
2026-05-07 16:03 34.77893 -119.47545 17886 ft 372 kts 127°
2026-05-07 16:03 34.76255 -119.45093 17434 ft 371 kts 126°
2026-05-07 16:03 34.74646 -119.42641 17054 ft 369 kts 126°
2026-05-07 16:03 34.73075 -119.40233 16685 ft 366 kts 126°
2026-05-07 16:04 34.71492 -119.37808 16316 ft 363 kts 126°
2026-05-07 16:04 34.69921 -119.35405 15959 ft 360 kts 126°
2026-05-07 16:04 34.68364 -119.33027 15604 ft 358 kts 127°
2026-05-07 16:04 34.66835 -119.30698 15268 ft 355 kts 127°
2026-05-07 16:05 34.65300 -119.28355 14917 ft 352 kts 127°
2026-05-07 16:05 34.63806 -119.26015 14568 ft 348 kts 123°
2026-05-07 16:05 34.62526 -119.23512 14243 ft 344 kts 118°
2026-05-07 16:05 34.61360 -119.21014 13868 ft 342 kts 118°
2026-05-07 16:06 34.60186 -119.18526 13516 ft 338 kts 119°
2026-05-07 16:06 34.59000 -119.16081 13160 ft 334 kts 120°
2026-05-07 16:06 34.57809 -119.13662 12842 ft 331 kts 120°
2026-05-07 16:06 34.56694 -119.11267 12501 ft 328 kts 113°
2026-05-07 16:07 34.55866 -119.08703 12182 ft 324 kts 108°
2026-05-07 16:07 34.55084 -119.06153 11871 ft 321 kts 115°
2026-05-07 16:07 34.53714 -119.04037 11555 ft 320 kts 139°
2026-05-07 16:07 34.51920 -119.02468 11235 ft 317 kts 145°
2026-05-07 16:08 34.50076 -119.01008 10930 ft 314 kts 145°
2026-05-07 16:08 34.48250 -118.99559 10622 ft 312 kts 145°
2026-05-07 16:08 34.46455 -118.98113 10417 ft 305 kts 144°
2026-05-07 16:08 34.44744 -118.96722 10359 ft 295 kts 144°
2026-05-07 16:09 34.43062 -118.95359 10284 ft 285 kts 144°
2026-05-07 16:09 34.41424 -118.94038 10093 ft 281 kts 144°
2026-05-07 16:09 34.39795 -118.92724 9807 ft 280 kts 144°
2026-05-07 16:09 34.38177 -118.91419 9491 ft 280 kts 145°
2026-05-07 16:10 34.36604 -118.90089 9200 ft 278 kts 139°
2026-05-07 16:10 34.35164 -118.88542 8916 ft 276 kts 135°
2026-05-07 16:10 34.33789 -118.86918 8634 ft 274 kts 135°
2026-05-07 16:10 34.32387 -118.85351 8325 ft 274 kts 136°
2026-05-07 16:11 34.30959 -118.83782 7815 ft 282 kts 137°
2026-05-07 16:11 34.29537 -118.82224 7527 ft 275 kts 137°
2026-05-07 16:11 34.28134 -118.80690 7233 ft 268 kts 137°
2026-05-07 16:11 34.26804 -118.79142 6979 ft 263 kts 127°
2026-05-07 16:12 34.25966 -118.77211 6710 ft 262 kts 112°
2026-05-07 16:12 34.25239 -118.75176 6417 ft 264 kts 113°
2026-05-07 16:12 34.24498 -118.73130 6119 ft 266 kts 113°
2026-05-07 16:12 34.23748 -118.71071 5807 ft 268 kts 113°
2026-05-07 16:13 34.22994 -118.69015 5507 ft 266 kts 114°
2026-05-07 16:13 34.22256 -118.67008 5202 ft 261 kts 114°
2026-05-07 16:13 34.21525 -118.65028 4911 ft 254 kts 113°
2026-05-07 16:13 34.20803 -118.63075 4621 ft 254 kts 113°
2026-05-07 16:14 34.20137 -118.61130 4492 ft 244 kts 103°
2026-05-07 16:14 34.20069 -118.59139 4251 ft 234 kts 84°
2026-05-07 16:14 34.20101 -118.57217 3951 ft 229 kts 91°
2026-05-07 16:14 34.20052 -118.55333 3649 ft 218 kts 91°
2026-05-07 16:15 34.20019 -118.53562 3396 ft 203 kts 90°
2026-05-07 16:15 34.19995 -118.51917 3148 ft 187 kts 90°
2026-05-07 16:15 34.19974 -118.50417 2910 ft 169 kts 90°
2026-05-07 16:15 34.19955 -118.49063 2687 ft 158 kts 89°
2026-05-07 16:16 34.19937 -118.47754 2488 ft 156 kts 89°
2026-05-07 16:16 34.19919 -118.46445 2293 ft 155 kts 89°
2026-05-07 16:16 34.19901 -118.45141 2089 ft 155 kts 90°
2026-05-07 16:16 34.19884 -118.43853 1882 ft 155 kts 91°
2026-05-07 16:17 34.19866 -118.42558 1679 ft 154 kts 91°
2026-05-07 16:17 34.19848 -118.41271 1484 ft 151 kts 91°
2026-05-07 16:17 34.19834 -118.40010 1293 ft 149 kts 92°
2026-05-07 16:17 34.19818 -118.38751 1079 ft 150 kts 93°
2026-05-07 16:18 34.19802 -118.37509 874 ft 145 kts 93°
2026-05-07 16:18 34.19783 -118.36327 700 ft 134 kts 91°
2026-05-07 16:18 34.19772 -118.35653 691 ft 26 kts 90°
2026-05-07 16:18 34.19772 -118.35625 697 ft 1 kts 89°
2026-05-07 16:19 34.19773 -118.35578 698 ft 10 kts 90°
2026-05-07 16:19 34.19751 -118.35481 692 ft 12 kts 154°
2026-05-07 16:19 34.19694 -118.35479 692 ft 1 kts 179°
2026-05-07 16:19 34.19687 -118.35479 692 ft 4 kts 177°
2026-05-07 16:20 34.19677 -118.35479 692 ft 0 kts 179°